Location: Bidwell Hollow
(37.7387°N, 90.1707°W)
Time: 02:04:24
(UTC+00:00)

Tiros 1 despin weight - Pass Details

Date: 16 May 2026
Orbit: 554 x 591 km, 48.2° (Epoch: 6 June)

Event Time Altitude Azimuth Distance (km) Brightness Sun altitude
Rises 17:07:40 0° 298° (WNW) 2,729 ? 68.6°
Reaches altitude 10° 17:09:59 10° 292° (WNW) 1,831 ? 68.8°
Maximum altitude 17:13:56 42° 221° (SW) 796 ? 69.2°
Drops below altitude 10° 17:17:52 10° 150° (SSE) 1,827 ? 69.6°
Sets 17:20:12 0° 143° (SE) 2,722 ? 69.8°
